Location: Castle
(40.7167°S, 175.9500°E)
Time: 02:38:11
(UTC+00:00)

Lacrosse 5 - Pass Details

Date: 04 August 2024
Orbit: 714 x 724 km, 57.0° (Epoch: 09 March)

Event Time Altitude Azimuth Distance (km) Brightness Sun altitude
Exits shadow 16:31:24 13° 169° (S) 2,054 4.3 -31.8°
Drops below altitude 10° 16:32:25 10° 158° (SSE) 2,247 4.7 -31.7°
Sets 16:35:47 0° 136° (SE) 3,171 5.8 -31.0°
